Location: Newark
(30.4994°N, 96.8283°W)
Time: 16:02:23
(UTC+00:00)

Envisat - Pass Details

Date: 27 November 2019
Orbit: 764 x 766 km, 98.1° (Epoch: 07 December)

Event Time Altitude Azimuth Distance (km) Brightness Sun altitude
Rises 00:31:58 0° 166° (SSE) 3,216 6.3 -14.0°
Reaches altitude 10° 00:34:16 10° 166° (SSE) 2,293 5.5 -14.5°
Maximum altitude 00:39:19 88° 78° (ENE) 770 2.9 -15.6°
Drops below altitude 10° 00:44:25 10° 349° (NNW) 2,304 5.4 -16.6°
Sets 00:46:43 0° 349° (NNW) 3,233 6.2 -17.1°
